This is the latest recevied weather packets stored in our database for station/object IZ0VWB-3. If no packets are shown the sender has not sent any weather packets the latest 10 day(s).
| Time | Temp. | Humidity | Pressure | Rain* | Wind** | Luminosity | Snow |
|---|---|---|---|---|---|---|---|
| 1777443483 | 14.44° C | 65% | 1003.2 hPa | 0 mm | - | - | - |
| 1777442884 | 13.89° C | 67% | 1003.1 hPa | 0 mm | - | - | - |
| 1777442284 | 13.33° C | 66% | 1003.1 hPa | 0 mm | - | - | - |
| 1777441684 | 13.89° C | 67% | 1003.1 hPa | 0 mm | - | - | - |
| 1777441085 | 12.78° C | 69% | 1003 hPa | 0 mm | - | - | - |
| 1777440484 | 12.22° C | 70% | 1003 hPa | 0 mm | - | - | - |
| 1777439885 | 11.11° C | 72% | 1002.9 hPa | 0 mm | - | - | - |
| 1777439286 | 10.56° C | 73% | 1002.8 hPa | 0 mm | - | - | - |
| 1777438685 | 9.44° C | 75% | 1002.7 hPa | 0 mm | - | - | - |
| 1777438086 | 8.89° C | 77% | 1002.7 hPa | 0 mm | - | - | - |
| 1777437486 | 8.33° C | 77% | 1002.7 hPa | 0 mm | - | - | - |
| 1777436884 | 8.33° C | 76% | 1002.8 hPa | 0 mm | - | - | - |
| 1777436285 | 8.33° C | 77% | 1002.6 hPa | 0 mm | - | - | - |
| 1777435685 | 8.33° C | 77% | 1002.5 hPa | 0 mm | - | - | - |
| 1777435086 | 7.78° C | 78% | 1002.6 hPa | 0 mm | - | - | - |
| 1777434484 | 7.78° C | 77% | 1002.3 hPa | 0 mm | - | - | - |
| 1777433885 | 8.33° C | 76% | 1002.4 hPa | 0 mm | - | - | - |
| 1777433286 | 8.89° C | 75% | 1002.6 hPa | 0 mm | - | - | - |
| 1777432684 | 8.89° C | 74% | 1002.6 hPa | 0 mm | - | - | - |
| 1777432085 | 8.89° C | 75% | 1002.7 hPa | 0 mm | - | - | - |
| 1777431486 | 8.89° C | 75% | 1002.7 hPa | 0 mm | - | - | - |
| 1777430885 | 8.33° C | 75% | 1002.7 hPa | 0 mm | - | - | - |
| 1777430285 | 8.33° C | 75% | 1002.7 hPa | 0 mm | - | - | - |
| 1777429684 | 8.33° C | 73% | 1002.7 hPa | 0 mm | - | - | - |
| 1777429083 | 8.33° C | 74% | 1002.6 hPa | 0 mm | - | - | - |
* Rain latest hour (hover to see other rain measurements)
** Current wind speed in m/s (hover to see current wind gust speed)